TITAN 3C TRANSTAGE DEB, 3494

Orbit data source: Space-Track

TITAN 3C TRANSTAGE DEB, 3494 is space debris in LEO originally from a launch on Fri, 15 Oct 1965 UTC launched from the Air Force Eastern Test Range (AFETR). Debris objects in space refer to the collection of defunct objects orbiting the Earth. Examples of debris include non-operational satellites, rocket bodies, and fragments generated from explosions, collisions, or faulty payload assembly.

Loading next visibility...
Identifier
3494, 1965-082QQ
Orbit
LEO
Country
Flag of USUS
Related business
Manufacturer
Unknown
Mission
Spacecraft
Bus & Motor
Unknown
Mass
Unknown
Launch date (UTC)
1965-10-15 (61 years ago)
Launch vehicle
Unknown
Launch site
Air Force Eastern Test Range (AFETR)
Object type
Payload
Rocket body
Debris
Shape & HBR
Unknown shape, 0.1 m
Radar Cross Section
Medium (>0.1 m² and <1 m²)

Expand to show TLE details & history
Last TLE update: 1 day ago

TLE from 1 day ago
0 TITAN 3C TRANSTAGE DEB
1 03494U 65082QQ  26207.27957228  .00000543  00000-0  97336-4 0  9994
2 03494  31.8902 258.9647 0026850 117.0896 243.2487 14.62105621211179
Epoch: 2026-07-26T06:42Z
TLE epoch observation values (Epoch: 2026-07-26T06:42:35.044Z)
Latitude
-0.00003°
Longitude
-145.66115°
Altitude
693.586 km
Speed
7.507 km/s
True Right ascension
17h 15m 51s
True Declination
0° 00' 00"
Sunlit
Object was in full shadow at epoch
Visualization orbit readout
Latitude
Unknown
Longitude
Unknown
Altitude
Unknown
Speed
Unknown
Apparent Right ascension
Unknown
Apparent Declination
Unknown
Sunlit
N/A
Visualization observer readout
Local Sidereal Time
00:02:04
Azimuth
Unknown
Elevation
Unknown
Doppler factor
Unknown
Orbital elements
Apogee altitude
708.991 km
Perigee altitude
671.035 km
Semi-major axis
7,068.15 km
Eccentricity
0.00269
Inclination
31.8902°
RAAN
258.9647°
Arg. of periapsis
117.0896°
True anomaly
242.97437°
Mean anomaly
243.2487°
Eccentric anomaly
243.11149°
Mean motion
3.65245 °/min
Orbital period
98.56 mins
BSTAR
0.000097336

Documentation

Showing up to 5 results
|